[[{"header":{"parameterUnit":"m.s-1","parameterCategory":1,"la1":30.2991,"la2":30.254,"lo1":-89.0895,"lo2":-89.0444,"dy":0.0017,"dx":0.0017,"nx":28,"ny":28,"refTime":"2024-10-05T03:00:00:Z","depth":0,"parameterNumber":2,"parameterNumberName":"U-component_of_WINDS"},"data":[0,0,0,0,0,0,0,0,0,0,0,0,0,0,0,0,0,0,0,0,0,0,0,0,0,0,0,0,0,0,0,0,0,0,0,0,0,0,0,0,0,0,0,0,0,0,0,0,0,0,0,0,0,0,0,0,0,0,-4.8594,-4.8595,0,-4.8643,-4.8643,-4.8644,-4.8592,-4.859,-4.8588,-4.8586,-4.8637,-4.864,-4.8643,0,0,0,0,0,0,0,0,0,0,0,0,0,-4.8458,-4.8461,-4.8594,-4.8595,-4.8595,-4.8643,-4.8643,-4.8644,-4.8592,-4.859,-4.8587,-4.8585,-4.8636,-4.864,-4.8644,0,0,0,0,0,0,0,0,0,0,0,0,0,-4.8513,-4.8462,-4.8594,-4.8575,-4.8574,-4.8643,-4.8643,-4.8644,-4.8593,-4.859,-4.8587,-4.8584,-4.8635,-4.864,-4.8644,-4.8735,0,0,-4.8659,-4.8661,0,0,0,0,0,0,0,0,-4.851,-4.8518,-4.8577,-4.8576,-4.8575,-4.8608,-4.8614,-4.8675,-4.8593,-4.8586,-4.8586,-4.8582,-4.863,-4.8635,-4.8651,-4.8737,-4.8739,-4.866,-4.8663,-4.8665,-4.8666,0,0,0,0,0,0,0,-4.8506,-4.8516,-4.8613,-4.8578,-4.8577,-4.8565,-4.8569,-4.8625,-4.8624,-4.8586,-4.8582,-4.8589,-4.8629,-4.8646,-4.8652,-4.874,-4.8659,-4.8664,-4.8667,-4.8669,-4.8905,-4.8909,0,0,0,0,0,0,-4.8504,-4.8513,-4.8612,-4.8615,-4.8534,-4.857,-4.8575,-4.8601,-4.8623,-4.8624,-4.8591,-4.8586,-4.864,-4.8646,-4.8653,-4.8762,-4.8665,-4.8669,-4.8672,-4.8902,-4.8906,-4.891,0,0,0,0,0,0,-4.8502,-4.8514,-4.861,-4.8563,-4.8574,-4.8575,-4.8605,-4.8603,-4.862,-4.8627,-4.8627,-4.8609,-4.8637,-4.8646,-4.8715,-4.8763,-4.8671,-4.8676,-4.8898,-4.8903,-4.8908,-4.898,0,0,0,0,0,0,-4.8498,-4.8513,-4.8547,-4.8564,-4.8577,-4.8671,-4.8608,-4.8606,-4.8629,-4.8623,-4.8644,-4.8645,-4.8636,-4.8708,-4.872,-4.8768,-4.868,-4.8894,-4.89,-4.8906,-4.8974,-4.8987,-4.8999,0,0,0,0,0,-4.8493,-4.8565,-4.8549,-4.8561,-4.8619,-4.8673,-4.8681,-4.8668,-4.8633,-4.8667,-4.8672,-4.8644,-4.8756,-4.8716,-4.8729,-4.8779,-4.8891,-4.8899,-4.8906,-4.8968,-4.8984,-4.8998,0,0,0,0,0,0,-4.8553,-4.8567,-4.8549,-4.8628,-4.865,-4.8664,-4.8707,-4.8686,-4.8719,-4.8712,-4.8695,-4.8701,-4.8774,-4.8783,-4.8738,-4.8869,-4.8818,-4.8828,-4.886,-4.8876,-4.8889,-4.8885,-4.8684,0,0,0,0,0,-4.8575,-4.8617,-4.8627,-4.8696,-4.8708,-4.8706,-4.8729,-4.8718,-4.874,-4.8749,-4.8759,-4.8782,-4.8823,-4.885,-4.8887,-4.8974,-4.898,-4.9016,-4.9028,-4.9038,-4.9048,-4.9097,-4.9114,-4.8935,-4.8935,-4.8935,0,0,-4.8622,-4.8634,-4.8662,-4.8709,-4.8724,-4.877,-4.8714,-4.8764,-4.8798,-4.8757,-4.8823,-4.8831,-4.8856,-4.8935,-4.897,-4.8945,-4.9099,-4.9048,-4.9056,-4.906,-4.9107,-4.9124,-4.9139,-4.894,-4.8939,-4.8938,0,0,-4.873,-4.8743,-4.8803,-4.882,-4.8845,-4.8843,-4.8858,-4.8876,-4.888,-4.8946,-4.8917,-4.8957,-4.9027,-4.9046,-4.9066,-4.9184,-4.916,-4.9196,-4.9263,-4.9311,-4.9325,-4.9337,-4.9381,-4.9397,-4.9206,-4.9206,-4.9206,0,-4.8785,-4.8851,-4.8837,-4.8889,-4.8911,-4.8877,-4.8938,-4.8956,-4.8991,-4.9008,-4.8979,-4.9067,-4.9081,-4.9166,-4.9195,-4.9211,-4.9228,-4.9194,-4.9324,-4.9336,-4.9348,-4.939,-4.9406,-4.921,-4.921,-4.9209,-4.9209,0,-4.8919,-4.8966,-4.9011,-4.9047,-4.9074,-4.9131,-4.9126,-4.9155,-4.9142,-4.9144,-4.9213,-4.9229,-4.927,-4.9289,-4.9277,-4.9373,-4.9357,-4.9326,-4.9274,-4.9369,-4.9409,-4.9424,-4.9217,-4.9215,-4.9214,-4.9213,0,0,-4.9065,-4.9094,-4.9111,-4.9128,-4.9153,-4.9189,-4.9245,-4.9286,-4.9312,-4.9338,-4.9386,-4.9447,-4.9419,-4.9441,-4.9431,-4.9473,-4.9568,-4.9437,-4.9438,-4.9463,-4.9678,-4.9702,-4.972,-4.9552,-4.9555,-4.9558,-4.9676,0,-4.9176,-4.9272,-4.9262,-4.9355,-4.9399,-4.9367,-4.9416,-4.9438,-4.9442,-4.9481,-4.9485,-4.9529,-4.9488,-4.9501,-4.9542,-4.9548,-4.9611,-4.9539,-4.9598,-4.9601,-4.9594,-4.974,-4.9765,-4.9876,-4.9691,-4.9694,-4.9696,0,-4.9317,-4.9349,-4.9447,-4.9467,-4.9485,-4.953,-4.9567,-4.9604,-4.9629,-4.9628,-4.9654,-4.9637,-4.9695,-4.9641,-4.9722,-4.9673,-4.9697,-4.9704,-4.9708,-4.9714,-4.9655,-4.9752,-4.9911,-4.9928,-4.9719,-4.9717,-4.9716,0,-4.9417,-4.9484,-4.9552,-4.9567,-4.9592,-4.9624,-4.9636,-4.9658,-4.9684,-4.9716,-4.9733,-4.9772,-4.9794,-4.9826,-4.982,-4.9782,-4.9904,-4.9849,-4.9907,-4.9907,-4.9934,-4.9933,-5.0101,-4.9947,-4.9947,-4.9947,-4.9946,0,-4.9542,-4.9603,-4.9597,-4.9639,-4.9707,-4.9695,-4.9763,-4.9771,-4.9791,-4.9835,-4.981,-4.9852,-4.9841,-4.9883,-4.9879,-4.9948,-4.9958,-4.9961,-4.9959,-4.9964,-4.9964,-4.998,-4.9972,-4.9951,-4.995,-4.9949,-4.9949,0,-4.9665,-4.9663,-4.9735,-4.9753,-4.9759,-4.9809,-4.9826,-4.9866,-4.9868,-4.9924,-4.9936,-4.994,-4.9988,-4.9986,-5.004,-5.0038,-5.0123,-5.0112,-5.0115,-5.0113,-5.0171,-5.0167,-5.0357,-5.0382,-5.0211,-5.0212,-5.0214,0,-4.9745,-4.9792,-4.9816,-4.9843,-4.9858,-4.9902,-4.9929,-4.9919,-4.9947,-4.998,-5.0017,-5.0063,-5.0099,-5.0178,-5.0187,-5.0229,-5.0219,-5.0283,-5.0226,-5.023,-5.0223,-5.0221,-5.0226,-5.0295,-5.0297,-5.0298,-5.03,0,-4.9889,-4.9886,-4.9925,-4.9965,-4.9997,-5.0027,-5.0055,-5.0079,-5.0072,-5.0106,-5.0155,-5.0183,-5.024,-5.0287,-5.0328,-5.0341,-5.0321,-5.0318,-5.0334,-5.0339,-5.034,-5.0342,-5.0148,-5.0314,-5.0312,-5.0311,-5.031,-5.031,-4.9994,-5.0035,-5.0059,-5.0104,-5.0124,-5.0151,-5.019,-5.0197,-5.0238,-5.0283,-5.0275,-5.0331,-5.0356,-5.0409,-5.0427,-5.0471,-5.0449,-5.0471,-5.0477,-5.0483,-5.0491,-5.0332,-5.0478,-5.0478,-5.0478,-5.0477,-5.0477,0,-5.0138,-5.0153,-5.0194,-5.0234,-5.027,-5.0246,-5.0276,-5.0308,-5.0357,-5.0383,-5.0419,-5.0477,-5.0523,-5.0536,-5.058,-5.0613,-5.0605,-5.0626,-5.0624,-5.0628,-5.0507,-5.049,-5.0632,-5.0632,-5.0632,-5.0632,-5.0632,-5.0632,-5.0218,-5.0286,-5.0287,-5.0366,-5.0379,-5.0434,-5.0453,-5.0479,-5.0499,-5.0565,-5.0603,-5.061,-5.0631,-5.0677,-5.0719,-5.0722,-5.074,-5.0765,-5.0764,-5.0651,-5.0636,-5.0621,-5.0605,-5.0769,-5.0769,-5.0881,-5.0882,-5.0883]},{"header":{"parameterUnit":"m.s-1","parameterCategory":1,"la1":30.2991,"la2":30.254,"lo1":-89.0895,"lo2":-89.0444,"dy":0.0017,"dx":0.0017,"nx":28,"ny":28,"refTime":"2024-10-05T03:00:00:Z","depth":0,"parameterNumber":3,"parameterNumberName":"V-component_of_WINDS"},"data":[0,0,0,0,0,0,0,0,0,0,0,0,0,0,0,0,0,0,0,0,0,0,0,0,0,0,0,0,0,0,0,0,0,0,0,0,0,0,0,0,0,0,0,0,0,0,0,0,0,0,0,0,0,0,0,0,0,0,-3.0888,-3.0888,0,-3.0902,-3.0902,-3.0902,-3.089,-3.089,-3.0889,-3.0889,-3.0902,-3.0903,-3.0903,0,0,0,0,0,0,0,0,0,0,0,0,0,-3.0849,-3.0849,-3.0888,-3.0888,-3.0888,-3.0902,-3.0902,-3.0903,-3.089,-3.089,-3.0889,-3.0889,-3.0902,-3.0903,-3.0904,0,0,0,0,0,0,0,0,0,0,0,0,0,-3.0864,-3.085,-3.0888,-3.0884,-3.0884,-3.0902,-3.0902,-3.0903,-3.0891,-3.089,-3.0889,-3.0888,-3.0901,-3.0902,-3.0904,-3.0926,0,0,-3.0907,-3.0908,0,0,0,0,0,0,0,0,-3.0864,-3.0866,-3.0884,-3.0884,-3.0884,-3.0894,-3.0893,-3.091,-3.0891,-3.0888,-3.0889,-3.0888,-3.09,-3.0901,-3.0905,-3.0927,-3.0927,-3.0908,-3.0908,-3.0909,-3.0909,0,0,0,0,0,0,0,-3.0863,-3.0865,-3.0893,-3.0885,-3.0884,-3.0881,-3.0882,-3.0896,-3.0898,-3.0888,-3.0887,-3.0889,-3.0899,-3.0904,-3.0905,-3.0928,-3.0908,-3.0909,-3.0909,-3.091,-3.097,-3.0971,0,0,0,0,0,0,-3.0862,-3.0864,-3.0893,-3.0894,-3.0872,-3.0882,-3.0884,-3.0891,-3.0898,-3.0898,-3.089,-3.0889,-3.0902,-3.0904,-3.0906,-3.0934,-3.0909,-3.091,-3.0911,-3.0969,-3.097,-3.0971,0,0,0,0,0,0,-3.0861,-3.0865,-3.0892,-3.0879,-3.0882,-3.0884,-3.0892,-3.0892,-3.0897,-3.0899,-3.0899,-3.0895,-3.0902,-3.0904,-3.0922,-3.0934,-3.091,-3.0912,-3.0968,-3.0969,-3.097,-3.099,0,0,0,0,0,0,-3.086,-3.0864,-3.0873,-3.0879,-3.0883,-3.0908,-3.0893,-3.0893,-3.0899,-3.0898,-3.0903,-3.0904,-3.0901,-3.092,-3.0923,-3.0936,-3.0913,-3.0967,-3.0968,-3.097,-3.0988,-3.0992,-3.0995,0,0,0,0,0,-3.0859,-3.0878,-3.0874,-3.0877,-3.0894,-3.0909,-3.0911,-3.0909,-3.09,-3.0909,-3.0911,-3.0903,-3.0932,-3.0922,-3.0925,-3.0938,-3.0966,-3.0968,-3.097,-3.0987,-3.0991,-3.0995,0,0,0,0,0,0,-3.0872,-3.0878,-3.0874,-3.0896,-3.0902,-3.0907,-3.0918,-3.0913,-3.0922,-3.092,-3.0916,-3.0918,-3.0937,-3.0939,-3.0927,-3.0961,-3.0948,-3.095,-3.0959,-3.0963,-3.0967,-3.0966,-3.0914,0,0,0,0,0,-3.0878,-3.089,-3.0894,-3.0913,-3.0916,-3.0917,-3.0923,-3.0921,-3.0927,-3.093,-3.0932,-3.0938,-3.0949,-3.0956,-3.0965,-3.0988,-3.0989,-3.0998,-3.1002,-3.1004,-3.1007,-3.102,-3.1025,-3.0977,-3.0977,-3.0977,0,0,-3.0889,-3.0894,-3.0902,-3.0916,-3.092,-3.0933,-3.0919,-3.0933,-3.0942,-3.0932,-3.0949,-3.0951,-3.0957,-3.0978,-3.0987,-3.098,-3.1021,-3.1007,-3.1009,-3.101,-3.1023,-3.1027,-3.1031,-3.0978,-3.0978,-3.0978,0,0,-3.0917,-3.0922,-3.0938,-3.0944,-3.0951,-3.0952,-3.0956,-3.0961,-3.0963,-3.098,-3.0973,-3.0983,-3.1001,-3.1007,-3.1012,-3.1042,-3.1036,-3.1045,-3.1063,-3.1076,-3.108,-3.1083,-3.1095,-3.11,-3.1048,-3.1048,-3.1048,0,-3.0931,-3.095,-3.0947,-3.0962,-3.0969,-3.096,-3.0977,-3.0982,-3.0992,-3.0997,-3.0989,-3.1012,-3.1016,-3.1038,-3.1046,-3.1049,-3.1054,-3.1045,-3.1079,-3.1083,-3.1086,-3.1097,-3.1102,-3.1049,-3.1049,-3.1049,-3.1048,0,-3.0967,-3.098,-3.0992,-3.1004,-3.1011,-3.1027,-3.1027,-3.1034,-3.1031,-3.1033,-3.1051,-3.1055,-3.1066,-3.107,-3.1067,-3.1092,-3.1088,-3.108,-3.1067,-3.1092,-3.1103,-3.1107,-3.105,-3.105,-3.105,-3.1049,0,0,-3.1004,-3.1014,-3.1019,-3.1025,-3.1033,-3.1043,-3.1058,-3.1069,-3.1077,-3.1084,-3.1097,-3.1113,-3.1105,-3.1111,-3.1108,-3.1119,-3.1145,-3.111,-3.111,-3.1118,-3.1175,-3.1182,-3.1188,-3.1141,-3.1141,-3.1142,-3.1175,0,-3.1034,-3.1062,-3.106,-3.1086,-3.1099,-3.1091,-3.1104,-3.111,-3.1112,-3.1122,-3.1123,-3.1135,-3.1124,-3.1127,-3.1138,-3.114,-3.1157,-3.1137,-3.1154,-3.1154,-3.1154,-3.1193,-3.1201,-3.1232,-3.1179,-3.118,-3.118,0,-3.1072,-3.1082,-3.111,-3.1117,-3.1122,-3.1135,-3.1146,-3.1156,-3.1163,-3.1163,-3.117,-3.1165,-3.118,-3.1166,-3.1187,-3.1174,-3.118,-3.1182,-3.1183,-3.1186,-3.117,-3.1199,-3.1241,-3.1247,-3.1187,-3.1186,-3.1186,0,-3.1099,-3.1119,-3.1139,-3.1143,-3.1152,-3.1161,-3.1164,-3.117,-3.1178,-3.1187,-3.1192,-3.1202,-3.1208,-3.1216,-3.1214,-3.1204,-3.1237,-3.1222,-3.1238,-3.1238,-3.1247,-3.1247,-3.1293,-3.1248,-3.1248,-3.1248,-3.1248,0,-3.1133,-3.1151,-3.1151,-3.1163,-3.1183,-3.118,-3.1199,-3.1202,-3.1208,-3.122,-3.1213,-3.1225,-3.1221,-3.1232,-3.1231,-3.125,-3.1252,-3.1253,-3.1253,-3.1255,-3.1255,-3.126,-3.1259,-3.1249,-3.1249,-3.1249,-3.1248,0,-3.1167,-3.1168,-3.1189,-3.1195,-3.1197,-3.1212,-3.1217,-3.1229,-3.1229,-3.1245,-3.1249,-3.125,-3.1263,-3.1262,-3.1276,-3.1275,-3.1299,-3.1295,-3.1297,-3.1297,-3.1314,-3.1313,-3.1367,-3.1375,-3.1323,-3.1324,-3.1324,0,-3.119,-3.1204,-3.1212,-3.122,-3.1225,-3.1238,-3.1246,-3.1244,-3.1252,-3.1261,-3.1272,-3.1284,-3.1295,-3.1316,-3.1318,-3.1329,-3.1327,-3.1345,-3.1329,-3.1331,-3.1329,-3.1329,-3.1331,-3.1349,-3.1349,-3.135,-3.135,0,-3.1231,-3.1231,-3.1243,-3.1255,-3.1265,-3.1274,-3.1283,-3.129,-3.1288,-3.1298,-3.1312,-3.132,-3.1335,-3.1348,-3.1359,-3.1362,-3.1357,-3.1355,-3.136,-3.1363,-3.1364,-3.1366,-3.1308,-3.1354,-3.1354,-3.1354,-3.1353,-3.1353,-3.1261,-3.1274,-3.1282,-3.1296,-3.1302,-3.131,-3.1322,-3.1324,-3.1336,-3.1349,-3.1347,-3.1363,-3.137,-3.1384,-3.1388,-3.1401,-3.1394,-3.14,-3.1402,-3.1405,-3.1408,-3.1361,-3.1402,-3.1402,-3.1402,-3.1402,-3.1402,0,-3.1303,-3.1308,-3.1321,-3.1334,-3.1345,-3.1338,-3.1347,-3.1357,-3.1372,-3.1379,-3.1389,-3.1406,-3.1419,-3.1421,-3.1434,-3.1443,-3.1441,-3.1447,-3.1447,-3.1448,-3.1412,-3.1407,-3.1449,-3.1448,-3.1448,-3.1448,-3.1448,-3.1448,-3.1327,-3.1348,-3.1349,-3.1373,-3.1378,-3.1394,-3.14,-3.1408,-3.1414,-3.1433,-3.1444,-3.1446,-3.1451,-3.1464,-3.1476,-3.1476,-3.1482,-3.1489,-3.1489,-3.1455,-3.145,-3.1446,-3.1442,-3.149,-3.149,-3.1524,-3.1524,-3.1525]}]]